Probability
19 16 13 13 16 13 13 16 19 26 16 16 13 16 16 19 19 13 13 58 71 77 77 74 81 87 97 100 100 100 100 100 100 100 97 97 97 94 87 77 71 77 71
10 6 10 6 3 6 3 3 0 6 6 6 6 10 6 3 3 6 13 26 65 77 65 71 77 87 90 100 100 100 100 100 100 100 100 100 100 94 94 87 81 77 74
13 6 3 3 3 3 0 0 0 0 0 0 0 0 0 3 3 3 10 6 19 61 74 77 77 90 94 100 100 100 100 100 100 100 100 100 100 97 94 94 87 77 61
0 0 3 3 0 0 0 0 0 0 0 0 0 0 0 0 0 0 3 10 10 13 52 81 81 87 87 90 94 100 100 100 100 100 100 100 100 97 94 87 87 58 45
0 0 0 0 0 0 0 0 0 0 0 0 0 0 0 0 0 0 0 3 3 3 3 16 68 77 77 87 90 97 100 100 100 100 100 100 100 97 90 81 71 58 26
0 0 0 0 0 0 0 0 0 0 0 0 0 0 0 0 0 0 0 0 3 3 3 3 13 29 71 87 90 97 100 100 100 100 100 100 100 100 87 68 65 48 23
0 0 0 0 0 0 0 0 0 0 0 0 0 0 0 0 0 0 0 0 0 6 3 6 0 10 10 61 68 87 94 90 100 100 100 100 100 100 90 58 52 29 23
0 0 0 0 0 0 0 0 0 0 0 0 0 0 0 0 0 0 0 0 0 0 3 6 0 3 3 3 10 55 81 87 90 94 97 100 94 90 84 58 48 23 23
0 0 0 0 0 0 0 0 0 0 0 0 0 0 0 0 0 0 0 0 0 0 0 0 0 0 0 0 0 10 52 68 74 81 87 90 84 77 71 61 55 29 19
0 0 0 0 0 0 0 0 0 0 0 0 0 0 0 0 0 0 0 0 0 0 0 0 0 0 0 0 0 0 10 29 55 74 81 84 77 71 65 71 68 52 32
0 0 0 0 0 0 0 0 0 0 0 0 0 0 0 0 0 0 0 0 0 0 0 0 0 0 0 0 0 0 0 3 13 35 52 61 68 74 71 71 71 74 58
0 0 0 0 0 0 0 0 0 0 0 0 0 0 0 0 0 0 0 0 0 0 0 0 0 0 0 0 0 0 0 0 0 0 10 19 32 45 55 58 55 65 81
0 0 0 0 0 0 0 0 0 0 0 0 0 0 0 0 0 0 0 0 0 0 0 0 0 0 0 0 0 0 0 0 0 0 0 3 10 19 23 39 42 52 55
0 0 0 0 0 0 0 0 0 0 0 0 0 0 0 0 0 0 0 0 0 0 0 0 0 0 0 0 0 0 0 0 0 0 0 0 0 0 6 10 19 26 26
0 0 0 0 0 0 0 0 0 0 0 0 0 0 0 0 0 0 0 0 0 0 0 0 0 0 0 0 0 0 0 0 0 0 0 0 0 0 0 0 0 0 0
0 0 0 0 0 0 0 0 0 0 0 0 0 0 0 0 0 0 0 0 0 0 0 0 0 0 0 0 0 0 0 0 0 0 0 0 0 0 0 0 0 0 0
0 0 0 0 0 0 0 0 0 0 0 0 0 0 0 0 0 0 0 0 0 0 0 0 0 0 0 0 0 0 0 0 0 0 0 0 0 0 0 0 0 0 0
0 0 0 0 0 0 0 0 0 0 0 0 0 0 0 0 0 0 0 0 0 0 0 0 0 0 0 0 0 0 0 0 0 0 0 0 0 0 0 0 0 0 0
0 0 0 0 0 0 0 0 0 0 0 0 0 0 0 0 0 0 0 0 0 0 0 0 0 0 0 0 0 0 0 0 0 0 0 0 0 0 0 0 0 0 0
0 0 0 0 0 0 0 0 0 0 0 0 0 0 0 0 0 0 0 0 0 0 0 0 0 0 0 0 0 0 0 0 0 0 0 0 0 0 0 0 0 0 0
0 0 0 0 0 0 0 0 0 0 0 0 0 0 0 0 0 0 0 0 0 0 0 0 0 0 0 0 0 0 0 0 0 0 0 0 0 0 0 0 0 0 0
0 0 0 0 0 0 0 0 0 0 0 0 0 0 0 0 0 0 0 0 0 0 0 0 0 0 0 0 0 0 0 0 0 0 0 0 0 0 0 0 0 0 0
0 0 0 0 0 0 0 0 0 0 0 0 0 0 0 0 0 0 0 0 0 0 0 0 0 0 0 0 0 0 0 0 0 0 0 0 0 0 0 0 0 0 0
0 0 0 0 0 0 0 0 0 0 0 0 0 0 0 0 0 0 0 0 0 0 0 0 0 0 0 0 0 0 0 0 0 0 0 0 0 0 0 0 0 0 0
0 0 0 0 0 0 0 0 0 0 0 0 0 0 0 0 0 0 0 0 0 0 0 0 0 0 0 0 0 0 0 0 0 0 0 0 0 0 0 0 0 0 0
0 0 0 0 0 0 0 0 0 0 0 0 0 0 0 0 0 0 0 0 0 0 0 0 0 0 0 0 0 0 0 0 0 0 0 0 0 0 0 0 0 0 0
Height
5880 5879 5878 5876 5875 5874 5873 5872 5871 5871 5871 5870 5870 5870 5870 5870 5871 5872 5873 5874 5875 5876 5877 5878 5880 5882 5884 5887 5889 5891 5893 5896 5898 5900 5902 5904 5906 5908 5910 5911 5912 5914 5914
5876 5875 5874 5872 5871 5870 5869 5868 5868 5867 5867 5866 5866 5866 5866 5866 5866 5867 5868 5869 5871 5872 5873 5874 5876 5878 5880 5882 5885 5887 5889 5892 5895 5897 5900 5902 5904 5906 5908 5909 5911 5912 5914
5873 5872 5870 5869 5868 5867 5866 5865 5864 5863 5863 5862 5862 5862 5862 5862 5862 5863 5863 5865 5866 5868 5869 5870 5872 5874 5876 5878 5880 5882 5885 5888 5891 5894 5896 5899 5901 5903 5905 5907 5909 5911 5912
5869 5868 5867 5865 5864 5863 5862 5861 5860 5859 5859 5858 5858 5858 5858 5858 5858 5858 5859 5860 5862 5863 5865 5866 5867 5869 5871 5873 5875 5877 5880 5883 5886 5889 5892 5895 5898 5900 5902 5904 5907 5908 5910
5866 5865 5863 5862 5860 5859 5858 5857 5856 5855 5854 5854 5854 5853 5853 5853 5853 5853 5854 5855 5857 5858 5859 5861 5862 5863 5865 5867 5870 5872 5875 5878 5881 5884 5887 5890 5893 5896 5899 5901 5903 5906 5908
5863 5861 5860 5858 5857 5856 5854 5853 5852 5851 5850 5850 5849 5849 5848 5848 5848 5848 5849 5850 5851 5853 5854 5855 5857 5858 5860 5862 5864 5866 5869 5872 5875 5878 5881 5885 5888 5891 5894 5897 5900 5902 5905
5860 5858 5857 5855 5854 5852 5851 5850 5849 5847 5847 5846 5845 5844 5844 5844 5844 5844 5844 5845 5846 5847 5848 5849 5851 5853 5854 5856 5858 5860 5863 5865 5868 5872 5875 5879 5882 5886 5889 5892 5895 5898 5901
5857 5855 5854 5852 5851 5849 5848 5846 5845 5844 5843 5842 5841 5840 5839 5839 5839 5839 5839 5839 5840 5841 5842 5843 5845 5846 5848 5850 5852 5854 5856 5859 5861 5865 5868 5872 5876 5879 5883 5886 5890 5893 5896
5855 5853 5851 5849 5848 5846 5844 5843 5841 5840 5839 5838 5837 5836 5835 5834 5834 5834 5833 5834 5834 5835 5836 5837 5838 5839 5841 5843 5845 5847 5849 5852 5854 5858 5861 5865 5869 5872 5876 5880 5884 5887 5891
5852 5850 5848 5846 5844 5842 5841 5839 5838 5836 5835 5833 5832 5831 5830 5829 5828 5828 5828 5827 5827 5828 5829 5830 5831 5832 5834 5835 5837 5840 5842 5844 5847 5850 5853 5857 5861 5865 5869 5873 5877 5881 5885
5849 5847 5845 5843 5841 5839 5837 5835 5833 5832 5830 5828 5827 5826 5825 5823 5822 5821 5821 5821 5821 5821 5821 5822 5823 5824 5825 5827 5829 5832 5834 5836 5839 5842 5846 5849 5853 5857 5861 5865 5869 5874 5878
5847 5845 5842 5839 5837 5835 5833 5831 5829 5827 5825 5823 5821 5819 5818 5817 5816 5815 5814 5813 5813 5813 5814 5814 5814 5816 5817 5819 5821 5823 5825 5828 5831 5834 5837 5840 5844 5848 5853 5857 5861 5866 5870
5844 5841 5839 5836 5834 5831 5829 5826 5824 5821 5819 5817 5815 5813 5811 5809 5808 5807 5806 5805 5805 5805 5805 5806 5806 5807 5808 5809 5811 5814 5816 5819 5822 5825 5828 5832 5836 5840 5844 5848 5852 5857 5862
5840 5838 5835 5832 5830 5827 5824 5821 5818 5815 5812 5810 5807 5805 5803 5801 5800 5798 5798 5797 5796 5795 5795 5796 5796 5797 5798 5800 5802 5804 5806 5809 5812 5815 5819 5823 5827 5831 5835 5839 5843 5848 5853
5837 5834 5831 5828 5825 5822 5819 5816 5812 5809 5806 5803 5800 5797 5794 5792 5790 5789 5788 5787 5787 5786 5785 5785 5786 5787 5788 5790 5791 5794 5796 5799 5802 5805 5809 5812 5817 5821 5825 5830 5834 5839 5843
5833 5830 5827 5823 5820 5817 5813 5809 5806 5802 5798 5795 5792 5789 5786 5783 5781 5779 5777 5776 5775 5775 5775 5774 5774 5775 5777 5778 5780 5783 5785 5788 5791 5794 5798 5802 5806 5811 5815 5820 5824 5829 5834
5828 5825 5822 5818 5815 5811 5807 5803 5799 5795 5791 5787 5784 5780 5777 5774 5771 5768 5766 5764 5763 5763 5763 5762 5762 5763 5764 5766 5768 5771 5774 5777 5780 5783 5787 5791 5795 5800 5804 5809 5814 5819 5824
5824 5820 5816 5813 5809 5805 5801 5796 5792 5788 5783 5779 5775 5771 5767 5764 5761 5758 5755 5753 5751 5750 5751 5751 5750 5750 5752 5753 5756 5759 5761 5765 5768 5772 5776 5780 5784 5789 5793 5798 5803 5808 5813
5818 5814 5810 5806 5802 5798 5794 5789 5785 5780 5775 5771 5767 5762 5758 5755 5751 5748 5745 5742 5740 5738 5738 5738 5738 5738 5739 5740 5743 5746 5749 5752 5756 5760 5764 5768 5772 5777 5782 5787 5792 5798 5803
5812 5808 5804 5800 5796 5791 5787 5782 5777 5772 5767 5762 5758 5753 5749 5745 5741 5738 5735 5732 5729 5727 5726 5726 5726 5726 5727 5727 5730 5733 5736 5739 5743 5747 5751 5756 5760 5765 5770 5776 5781 5787 5792
5805 5801 5797 5793 5788 5784 5779 5774 5769 5764 5759 5754 5749 5744 5740 5735 5731 5728 5724 5721 5719 5717 5715 5714 5714 5714 5715 5715 5717 5719 5722 5725 5729 5733 5738 5743 5748 5754 5758 5763 5769 5775 5781
5798 5794 5789 5785 5780 5775 5771 5766 5761 5756 5750 5745 5740 5735 5730 5726 5722 5718 5714 5711 5708 5706 5704 5703 5702 5702 5702 5702 5704 5706 5709 5713 5718 5721 5725 5730 5735 5741 5746 5751 5757 5763 5769
5790 5786 5781 5776 5772 5767 5762 5757 5752 5746 5741 5736 5731 5725 5720 5716 5712 5708 5704 5701 5698 5695 5693 5692 5691 5691 5690 5690 5691 5694 5696 5699 5704 5707 5712 5718 5723 5728 5733 5739 5744 5751 5757
5782 5777 5773 5768 5763 5758 5753 5748 5742 5737 5732 5726 5721 5716 5711 5706 5702 5698 5694 5691 5687 5685 5682 5681 5680 5680 5679 5679 5679 5681 5683 5687 5692 5695 5699 5706 5710 5715 5721 5727 5733 5739 5745
5773 5768 5764 5759 5754 5749 5743 5738 5733 5727 5722 5716 5711 5706 5701 5696 5692 5687 5684 5681 5677 5674 5671 5670 5669 5668 5668 5668 5668 5670 5672 5675 5679 5683 5686 5692 5698 5702 5708 5715 5721 5727 5734
5763 5759 5754 5749 5744 5739 5733 5728 5722 5717 5712 5706 5701 5695 5691 5686 5682 5677 5673 5670 5667 5664 5661 5660 5658 5658 5657 5657 5657 5658 5660 5663 5667 5671 5674 5679 5685 5689 5697 5703 5709 5715 5722
Wind_Speed
13 13 14 15 15 15 14 14 16 17 18 20 21 21 21 21 21 21 21 20 19 19 20 20 21 20 21 21 20 20 19 18 17 16 15 14 13 13 12 11 10 8 7
13 14 14 15 14 14 14 15 16 16 17 18 19 19 20 21 21 21 20 20 19 19 20 20 21 21 21 22 22 22 21 20 20 18 17 17 16 15 14 13 12 11 9
14 14 15 15 15 15 16 16 16 17 17 17 18 19 20 21 21 20 20 20 20 20 20 21 21 21 22 23 23 23 24 23 22 21 20 19 18 17 17 16 14 13 11
14 14 15 15 15 16 16 16 16 17 17 17 18 19 20 20 21 21 21 21 21 22 21 22 22 23 23 24 25 25 25 25 25 24 23 22 21 20 19 18 17 15 14
13 14 14 14 15 15 15 15 15 16 16 17 18 18 19 20 21 21 22 22 22 22 22 23 23 23 24 25 26 27 27 27 27 27 26 25 24 23 22 21 20 18 17
13 13 14 14 14 14 14 15 15 15 16 16 17 18 19 20 21 22 22 23 23 23 23 24 25 25 25 26 27 28 29 30 29 29 28 28 28 26 25 24 22 21 19
12 13 13 13 13 13 14 14 14 15 15 16 17 18 19 20 21 21 22 23 24 24 25 25 26 26 27 27 28 29 30 31 32 31 31 30 30 30 28 27 26 24 22
11 12 13 13 13 13 13 13 14 15 15 15 16 17 18 19 20 21 22 23 24 25 26 26 27 27 27 28 28 30 31 32 33 33 33 33 32 32 32 30 29 27 26
11 12 13 13 13 13 14 14 15 16 16 16 16 17 18 19 20 21 22 23 24 25 26 27 28 28 29 29 29 30 32 33 33 34 34 35 34 34 34 33 32 31 29
12 13 14 14 14 14 15 15 16 16 17 17 17 17 18 19 20 21 22 23 24 25 26 27 28 29 30 30 31 32 33 34 34 35 35 35 36 36 36 36 35 34 32
13 14 15 15 16 16 16 17 17 18 19 19 20 20 20 21 21 22 23 24 24 25 26 28 29 30 31 32 32 33 34 34 35 36 37 37 37 37 38 38 37 37 36
14 15 16 16 17 18 18 19 19 20 21 21 22 23 23 23 24 24 25 26 26 26 27 28 30 31 32 33 34 34 35 35 36 36 37 38 38 38 39 39 39 39 38
16 16 17 17 18 19 20 21 22 22 23 23 24 24 25 26 26 27 27 28 29 29 29 30 31 32 32 33 34 35 36 37 37 37 37 38 39 39 40 40 40 40 40
17 18 18 19 20 21 22 23 24 25 26 26 26 27 27 28 28 29 30 31 31 32 32 32 33 33 33 34 36 36 37 37 38 39 38 39 40 40 39 40 40 41 42
19 20 20 21 22 23 24 26 27 28 28 28 28 29 30 30 30 31 32 32 33 34 35 36 36 36 36 36 37 38 38 39 39 40 41 40 41 41 41 40 42 42 43
20 21 22 23 24 25 26 28 29 29 29 29 30 30 31 32 32 32 33 34 34 35 35 37 38 39 39 39 39 39 40 40 41 41 42 42 42 42 43 42 42 43 43
22 23 24 26 27 28 29 30 31 31 31 31 31 32 32 33 33 34 34 35 35 36 35 37 39 39 40 40 41 41 41 41 42 42 43 44 44 44 44 44 43 44 44
24 25 26 27 29 30 31 32 33 33 33 33 33 33 33 33 33 34 34 35 36 36 36 36 38 39 40 41 42 42 43 43 43 43 44 45 45 45 45 45 45 45 45
26 27 28 29 30 32 32 33 34 34 34 33 34 34 34 34 34 34 34 34 35 35 35 35 36 38 39 41 41 42 43 44 44 44 45 45 46 46 46 46 46 46 45
27 28 29 30 31 32 33 35 35 35 34 34 35 35 35 35 35 34 34 33 34 34 35 34 35 37 38 40 41 42 43 45 45 45 45 46 46 46 46 47 47 47 47
29 30 31 32 33 34 35 36 36 36 35 36 36 36 36 35 35 34 33 33 33 33 34 34 34 35 37 39 40 41 42 44 45 45 46 46 47 46 47 48 48 48 48
31 32 33 34 35 36 36 37 37 37 37 37 36 37 37 36 35 34 34 33 33 33 34 34 34 35 36 38 39 40 41 43 44 46 46 46 47 47 47 48 48 48 48
33 34 35 35 36 37 37 38 38 37 37 37 37 37 37 36 35 35 34 33 33 33 33 33 32 33 34 36 38 39 40 41 43 45 46 46 47 47 46 47 47 49 48
34 35 36 36 37 38 39 39 39 39 39 39 38 37 36 35 35 35 34 34 33 33 33 32 32 32 33 34 36 38 39 39 40 43 46 46 47 47 47 47 47 47 49
36 37 37 38 38 39 40 40 40 40 40 39 38 37 36 35 36 35 34 33 33 33 33 33 32 32 33 34 35 36 38 39 39 42 45 46 47 48 47 48 48 48 49
38 38 39 40 40 40 41 41 41 40 40 39 39 38 37 36 36 35 34 33 32 32 32 32 32 32 32 33 34 36 37 39 39 41 44 46 47 48 48 48 48 48 49
Wind_Direction
292 291 290 290 289 287 282 279 275 275 273 270 268 269 269 266 265 265 264 259 256 252 249 247 240 235 230 227 226 224 222 222 221 218 216 215 214 213 211 210 209 207 205
293 292 292 293 292 289 285 282 279 277 275 271 268 266 264 264 266 267 264 257 257 256 250 248 243 236 232 231 229 227 225 224 224 223 221 220 219 218 216 215 215 214 213
297 297 296 296 294 292 288 285 281 279 276 273 268 265 265 265 264 263 261 257 256 256 253 248 243 239 238 233 230 229 227 226 226 226 225 224 223 222 220 218 218 219 218
303 301 299 298 297 295 292 288 283 280 277 275 271 268 267 267 265 262 260 257 255 254 252 250 246 244 242 239 234 232 229 228 228 228 228 227 226 224 223 221 220 221 222
305 303 302 300 299 297 296 293 289 284 281 278 274 271 268 266 264 262 259 258 256 254 252 249 248 245 243 241 237 235 233 231 229 229 229 229 227 226 225 224 224 224 224
308 307 306 304 302 301 300 297 294 290 286 282 278 274 270 267 264 262 260 258 257 254 252 251 249 247 245 242 239 238 235 233 232 230 230 230 229 228 227 226 227 226 226
313 312 312 311 310 307 303 300 297 295 291 287 282 278 273 270 267 264 262 259 257 255 253 252 251 248 246 244 242 241 238 236 234 232 232 232 231 230 229 229 227 227 227
318 317 317 316 315 312 310 306 304 301 297 292 287 283 278 274 270 267 263 261 258 256 254 253 252 249 247 245 243 241 239 238 237 234 232 233 232 231 231 230 229 228 228
326 324 323 320 317 314 312 309 306 304 301 296 291 286 283 279 274 270 267 264 261 258 256 254 252 250 248 246 244 242 240 239 238 236 235 234 233 232 231 231 230 230 229
331 328 326 324 322 319 315 310 307 304 301 298 293 289 286 284 281 277 271 267 264 260 257 254 252 250 248 246 244 242 240 239 238 237 236 235 234 233 232 232 231 231 230
334 330 328 325 323 321 318 313 308 305 302 298 295 291 288 286 283 280 277 272 267 263 259 256 253 250 247 245 244 243 241 240 238 237 237 236 235 234 233 232 232 232 231
335 332 331 329 326 322 319 315 311 308 304 300 296 293 290 287 284 281 278 274 270 266 262 259 255 252 249 247 244 243 242 241 239 238 237 236 235 235 234 234 234 232 231
335 334 332 329 326 323 320 318 315 311 307 303 300 296 293 289 285 282 279 275 272 267 263 260 257 254 252 249 246 244 243 242 241 239 238 237 235 234 234 234 234 233 232
334 332 330 327 325 323 321 319 317 314 311 306 302 298 295 291 287 283 279 276 272 269 266 262 258 255 253 251 248 245 243 242 241 240 238 237 236 235 234 233 234 233 232
331 329 326 324 324 323 322 320 318 316 313 309 305 302 298 295 290 286 282 277 272 269 267 264 260 257 253 251 249 246 243 241 240 240 239 237 236 235 235 235 234 233 233
327 326 325 324 323 322 321 320 318 316 313 310 307 305 302 298 293 289 285 280 275 270 267 265 262 258 255 252 249 247 244 242 240 239 238 238 236 235 234 234 234 232 232
324 324 323 323 322 322 322 321 319 316 313 311 308 306 303 300 296 291 287 283 278 272 267 264 262 259 256 253 250 247 245 243 241 240 238 238 236 235 234 234 234 233 232
320 320 321 321 322 321 321 320 319 316 313 311 310 308 305 302 298 293 290 285 280 275 270 265 262 259 257 253 250 248 246 244 241 239 238 238 237 235 234 233 233 233 231
316 317 318 319 319 319 319 319 318 316 314 312 310 309 307 304 300 296 292 288 283 278 273 268 263 260 257 254 251 248 246 244 242 240 239 237 236 235 234 233 232 231 231
315 315 316 317 317 318 318 318 318 316 314 312 311 309 307 304 301 297 293 289 285 280 276 271 265 261 258 256 252 249 246 244 242 240 238 237 235 235 234 233 232 231 230
313 314 315 315 315 316 317 317 317 316 314 312 310 309 307 304 301 298 295 291 287 282 277 272 267 263 260 257 254 250 246 244 242 240 238 236 235 234 233 232 232 230 229
310 311 313 313 314 315 315 316 315 314 313 312 310 308 306 304 302 298 295 292 289 284 279 274 270 266 261 258 254 251 247 243 241 239 237 235 234 232 231 231 230 229 229
308 310 312 313 313 314 315 315 314 314 313 312 310 308 306 304 302 299 296 294 290 286 280 275 271 267 263 259 255 251 248 244 240 239 237 234 233 231 230 230 229 228 227
308 310 311 311 312 313 313 314 314 314 313 311 309 308 305 304 303 300 297 294 290 286 280 276 272 268 265 261 257 252 249 245 241 239 237 233 233 232 231 229 228 228 227
307 309 310 310 311 312 313 313 313 313 312 311 309 307 305 304 303 301 298 294 290 286 281 278 274 270 266 262 258 253 249 246 242 239 237 234 232 232 230 229 228 227 227
307 308 309 309 310 311 313 312 312 312 311 310 308 306 305 304 302 300 297 295 291 287 283 279 275 272 267 263 259 255 250 246 243 240 238 235 231 231 229 228 228 227 226